[[{"header":{"parameterUnit":"m.s-1","parameterCategory":1,"la1":30.2991,"la2":30.254,"lo1":-89.0895,"lo2":-89.0444,"dy":0.0017,"dx":0.0017,"nx":28,"ny":28,"refTime":"2024-05-01T21:00:00:Z","depth":0,"parameterNumber":2,"parameterNumberName":"U-component_of_WINDS"},"data":[0,0,0,0,0,0,0,0,0,0,0,0,0,0,0,0,0,0,0,0,0,0,0,0,0,0,0,0,0,0,0,0,0,0,0,0,0,0,0,0,0,0,0,0,0,0,0,0,0,0,0,0,0,0,0,0,0,0,-4.1151,-4.1151,0,-4.115,-4.115,-4.115,-4.1057,-4.1055,-4.1052,-4.105,-4.1048,-4.105,-4.1052,0,0,0,0,0,0,0,0,0,0,0,0,0,-4.1073,-4.1075,-4.1151,-4.1151,-4.1151,-4.115,-4.115,-4.115,-4.1057,-4.1054,-4.1051,-4.1049,-4.1047,-4.1049,-4.1052,0,0,0,0,0,0,0,0,0,0,0,0,0,-4.1093,-4.1075,-4.1151,-4.1105,-4.1101,-4.115,-4.115,-4.115,-4.1058,-4.1054,-4.1051,-4.1047,-4.1046,-4.1049,-4.1052,-4.1146,0,0,-4.1063,-4.1064,0,0,0,0,0,0,0,0,-4.1092,-4.1096,-4.1112,-4.1108,-4.1104,-4.11,-4.1122,-4.1149,-4.1059,-4.1074,-4.105,-4.1046,-4.1068,-4.1069,-4.1077,-4.1146,-4.1146,-4.1063,-4.1065,-4.1066,-4.1067,0,0,0,0,0,0,0,-4.1091,-4.1095,-4.1151,-4.1112,-4.1107,-4.1084,-4.1083,-4.1126,-4.1091,-4.1073,-4.1066,-4.1067,-4.1065,-4.1074,-4.1076,-4.1146,-4.1063,-4.1066,-4.1068,-4.1069,-4.1291,-4.1295,0,0,0,0,0,0,-4.1096,-4.1095,-4.1151,-4.1151,-4.1089,-4.1089,-4.1087,-4.1105,-4.1091,-4.1085,-4.107,-4.1063,-4.107,-4.1072,-4.1076,-4.1184,-4.1066,-4.1069,-4.1071,-4.1288,-4.1292,-4.1297,0,0,0,0,0,0,-4.1094,-4.1102,-4.1151,-4.1121,-4.1126,-4.1094,-4.1114,-4.1107,-4.1115,-4.1089,-4.1082,-4.1086,-4.1067,-4.1071,-4.1129,-4.1182,-4.1071,-4.1074,-4.1283,-4.1289,-4.1294,-4.1401,0,0,0,0,0,0,-4.1093,-4.1102,-4.1137,-4.1123,-4.1128,-4.1205,-4.1118,-4.1109,-4.1122,-4.1112,-4.1102,-4.1097,-4.1065,-4.1125,-4.1133,-4.1185,-4.1076,-4.1278,-4.1286,-4.1293,-4.1392,-4.1409,-4.1424,0,0,0,0,0,-4.109,-4.1166,-4.1139,-4.1146,-4.1171,-4.1208,-4.1211,-4.1173,-4.1126,-4.1161,-4.1144,-4.1097,-4.1176,-4.1132,-4.1139,-4.1194,-4.1274,-4.1284,-4.1292,-4.1385,-4.1406,-4.1424,0,0,0,0,0,0,-4.1186,-4.1163,-4.1133,-4.1207,-4.121,-4.1192,-4.1234,-4.1196,-4.1212,-4.1202,-4.1155,-4.1153,-4.1219,-4.1212,-4.1163,-4.1284,-4.1217,-4.1228,-4.1285,-4.1305,-4.132,-4.1319,-4.1079,0,0,0,0,0,-4.1217,-4.1249,-4.1227,-4.1294,-4.1298,-4.1267,-4.1281,-4.1252,-4.1253,-4.1254,-4.1241,-4.1244,-4.1269,-4.1287,-4.1309,-4.1392,-4.1388,-4.1433,-4.1449,-4.1462,-4.1472,-4.1515,-4.1534,-4.1326,-4.1326,-4.1325,0,0,-4.1278,-4.127,-4.1293,-4.1314,-4.1313,-4.1347,-4.1268,-4.1308,-4.1332,-4.126,-4.1313,-4.1305,-4.1305,-4.1376,-4.1407,-4.1373,-4.1529,-4.1474,-4.1485,-4.1486,-4.1526,-4.1546,-4.1563,-4.1332,-4.133,-4.133,0,0,-4.1408,-4.1406,-4.1461,-4.1463,-4.1463,-4.1442,-4.1456,-4.1444,-4.1435,-4.1489,-4.1436,-4.1465,-4.151,-4.1512,-4.1519,-4.1653,-4.161,-4.1662,-4.1744,-4.1787,-4.1803,-4.1818,-4.1864,-4.1882,-4.1672,-4.1672,-4.1672,0,-4.1484,-4.1534,-4.1494,-4.1538,-4.1549,-4.1486,-4.1542,-4.1545,-4.1553,-4.1561,-4.1524,-4.1579,-4.1575,-4.1645,-4.1678,-4.1687,-4.17,-4.1661,-4.1804,-4.1818,-4.1831,-4.1875,-4.1893,-4.1678,-4.1677,-4.1677,-4.1676,0,-4.1628,-4.1664,-4.1709,-4.1718,-4.1734,-4.1784,-4.1752,-4.1773,-4.1744,-4.1727,-4.1783,-4.1776,-4.1795,-4.1811,-4.1782,-4.1878,-4.1856,-4.1813,-4.1744,-4.1858,-4.1898,-4.1915,-4.1687,-4.1685,-4.1683,-4.1681,0,0,-4.1815,-4.1804,-4.1821,-4.1825,-4.1822,-4.1848,-4.1896,-4.1916,-4.1934,-4.1943,-4.198,-4.2021,-4.1981,-4.1989,-4.1961,-4.1999,-4.2104,-4.195,-4.1949,-4.1977,-4.2209,-4.224,-4.226,-4.2077,-4.208,-4.2082,-4.2208,0,-4.1939,-4.2019,-4.1986,-4.2069,-4.2101,-4.2044,-4.2086,-4.2088,-4.2075,-4.21,-4.2085,-4.2114,-4.2059,-4.2064,-4.2099,-4.2084,-4.215,-4.2075,-4.2111,-4.2112,-4.211,-4.2282,-4.2315,-4.2433,-4.2224,-4.2226,-4.2228,0,-4.2094,-4.211,-4.2196,-4.2189,-4.2201,-4.2239,-4.2254,-4.228,-4.2283,-4.227,-4.2281,-4.2244,-4.229,-4.2225,-4.2287,-4.2237,-4.225,-4.2245,-4.2249,-4.2249,-4.2175,-4.2284,-4.247,-4.2488,-4.2253,-4.2251,-4.2249,0,-4.2221,-4.2263,-4.232,-4.2326,-4.2318,-4.2346,-4.2344,-4.2343,-4.2358,-4.2372,-4.2381,-4.2401,-4.2411,-4.2428,-4.2398,-4.2353,-4.2464,-4.2396,-4.2454,-4.2455,-4.2478,-4.2476,-4.2667,-4.2491,-4.249,-4.249,-4.249,0,-4.2362,-4.2416,-4.2377,-4.2412,-4.2472,-4.2434,-4.2495,-4.2487,-4.2487,-4.2519,-4.2472,-4.2503,-4.2462,-4.249,-4.2467,-4.2522,-4.2527,-4.2518,-4.2511,-4.2521,-4.2522,-4.2527,-4.2517,-4.2495,-4.2494,-4.2493,-4.2492,0,-4.2511,-4.2487,-4.2546,-4.2535,-4.2534,-4.2578,-4.2569,-4.2601,-4.2585,-4.2627,-4.2634,-4.261,-4.264,-4.2612,-4.2641,-4.2625,-4.2698,-4.268,-4.2698,-4.2692,-4.2751,-4.2745,-4.2949,-4.2974,-4.2784,-4.2786,-4.2787,0,-4.2601,-4.2642,-4.2637,-4.2655,-4.2657,-4.2688,-4.2703,-4.2668,-4.2686,-4.2693,-4.2724,-4.275,-4.2769,-4.282,-4.2804,-4.2827,-4.2807,-4.2878,-4.281,-4.2819,-4.2806,-4.2804,-4.2807,-4.289,-4.2893,-4.2895,-4.2896,0,-4.2764,-4.2751,-4.2774,-4.2795,-4.2814,-4.2828,-4.2839,-4.2857,-4.2821,-4.2844,-4.2874,-4.289,-4.292,-4.2946,-4.2964,-4.2961,-4.2923,-4.2918,-4.2932,-4.2942,-4.2949,-4.2945,-4.2733,-4.2913,-4.2911,-4.291,-4.2909,-4.2908,-4.2885,-4.2919,-4.2921,-4.2949,-4.2954,-4.2965,-4.2995,-4.2984,-4.3009,-4.3031,-4.3009,-4.3047,-4.3049,-4.3069,-4.3072,-4.31,-4.3071,-4.3092,-4.3097,-4.3102,-4.311,-4.2948,-4.3103,-4.3103,-4.3102,-4.3102,-4.3102,0,-4.3044,-4.3043,-4.307,-4.3086,-4.3109,-4.3073,-4.3083,-4.3104,-4.3137,-4.3144,-4.3164,-4.32,-4.3226,-4.3214,-4.3236,-4.3262,-4.3244,-4.3269,-4.3265,-4.3265,-4.3136,-4.312,-4.3282,-4.3282,-4.3282,-4.3282,-4.3282,-4.3282,-4.3129,-4.3184,-4.3172,-4.3229,-4.3228,-4.3264,-4.3273,-4.3283,-4.3288,-4.333,-4.3352,-4.3345,-4.3343,-4.3366,-4.3388,-4.3384,-4.3394,-4.3424,-4.3413,-4.3292,-4.3274,-4.3257,-4.3242,-4.3427,-4.3427,-4.354,-4.3541,-4.3542]},{"header":{"parameterUnit":"m.s-1","parameterCategory":1,"la1":30.2991,"la2":30.254,"lo1":-89.0895,"lo2":-89.0444,"dy":0.0017,"dx":0.0017,"nx":28,"ny":28,"refTime":"2024-05-01T21:00:00:Z","depth":0,"parameterNumber":3,"parameterNumberName":"V-component_of_WINDS"},"data":[0,0,0,0,0,0,0,0,0,0,0,0,0,0,0,0,0,0,0,0,0,0,0,0,0,0,0,0,0,0,0,0,0,0,0,0,0,0,0,0,0,0,0,0,0,0,0,0,0,0,0,0,0,0,0,0,0,0,1.7989,1.7989,0,1.7989,1.7989,1.7989,1.7975,1.7975,1.7975,1.7974,1.7971,1.7971,1.7972,0,0,0,0,0,0,0,0,0,0,0,0,0,1.7975,1.7975,1.7989,1.7989,1.7989,1.7989,1.7989,1.7989,1.7975,1.7975,1.7975,1.7974,1.7971,1.7971,1.7972,0,0,0,0,0,0,0,0,0,0,0,0,0,1.7979,1.7975,1.7989,1.7982,1.7982,1.7989,1.7989,1.7989,1.7976,1.7975,1.7974,1.7974,1.7971,1.7971,1.7972,1.7985,0,0,1.7973,1.7973,0,0,0,0,0,0,0,0,1.7978,1.7979,1.7983,1.7983,1.7982,1.7982,1.7983,1.7988,1.7976,1.7978,1.7974,1.7974,1.7975,1.7975,1.7976,1.7985,1.7985,1.7973,1.7973,1.7973,1.7973,0,0,0,0,0,0,0,1.7978,1.7979,1.7989,1.7983,1.7983,1.7979,1.7979,1.7984,1.7979,1.7977,1.7977,1.7977,1.7974,1.7976,1.7976,1.7985,1.7973,1.7973,1.7974,1.7974,1.8007,1.8007,0,0,0,0,0,0,1.7979,1.7979,1.7989,1.7989,1.7979,1.7979,1.7979,1.7982,1.7979,1.7978,1.7977,1.7976,1.7975,1.7975,1.7976,1.7992,1.7973,1.7974,1.7974,1.8006,1.8007,1.8007,0,0,0,0,0,0,1.7979,1.798,1.7989,1.7984,1.7985,1.798,1.7984,1.7983,1.7984,1.7979,1.7978,1.798,1.7975,1.7975,1.7984,1.7992,1.7974,1.7974,1.8005,1.8006,1.8007,1.8025,0,0,0,0,0,0,1.7978,1.798,1.7985,1.7984,1.7985,1.7997,1.7984,1.7983,1.7985,1.7984,1.7981,1.798,1.7975,1.7983,1.7984,1.7992,1.7975,1.8004,1.8006,1.8007,1.8024,1.8026,1.8029,0,0,0,0,0,1.7978,1.7989,1.7986,1.7987,1.7991,1.7998,1.7998,1.7993,1.7986,1.7991,1.7988,1.798,1.7991,1.7984,1.7985,1.7993,1.8004,1.8005,1.8007,1.8022,1.8026,1.8029,0,0,0,0,0,0,1.7989,1.7989,1.7985,1.7996,1.7997,1.7995,1.8001,1.7996,1.7998,1.7997,1.7989,1.7989,1.7998,1.7997,1.7989,1.8007,1.7996,1.7998,1.8008,1.8011,1.8014,1.8014,1.7975,0,0,0,0,0,1.7993,1.7999,1.7998,1.8008,1.8009,1.8005,1.8008,1.8004,1.8004,1.8005,1.8002,1.8002,1.8006,1.8009,1.8011,1.8024,1.8023,1.803,1.8033,1.8035,1.8036,1.8044,1.8048,1.8012,1.8012,1.8012,0,0,1.8001,1.8002,1.8005,1.801,1.8011,1.8017,1.8006,1.8012,1.8017,1.8005,1.8013,1.8012,1.8012,1.8023,1.8027,1.8022,1.8047,1.8037,1.8039,1.8039,1.8046,1.805,1.8053,1.8013,1.8013,1.8013,0,0,1.8019,1.802,1.8029,1.803,1.8032,1.803,1.8033,1.8032,1.8032,1.804,1.8033,1.8038,1.8044,1.8045,1.8046,1.8067,1.806,1.8068,1.8082,1.809,1.8092,1.8095,1.8103,1.8107,1.807,1.807,1.807,0,1.8028,1.8038,1.8034,1.8042,1.8045,1.8037,1.8046,1.8048,1.805,1.8052,1.8046,1.8055,1.8054,1.8066,1.8072,1.8073,1.8075,1.8068,1.8093,1.8095,1.8097,1.8105,1.8108,1.8071,1.8071,1.8071,1.807,0,1.8049,1.8057,1.8064,1.8069,1.8072,1.8081,1.8078,1.8082,1.8079,1.8077,1.8087,1.8087,1.809,1.8093,1.8088,1.8105,1.8101,1.8094,1.8083,1.8102,1.8109,1.8112,1.8072,1.8072,1.8072,1.8071,0,0,1.8072,1.8077,1.808,1.8083,1.8086,1.8091,1.81,1.8105,1.8109,1.8112,1.8119,1.8126,1.812,1.8122,1.8118,1.8125,1.8143,1.8117,1.8117,1.8122,1.8163,1.8168,1.8172,1.8139,1.814,1.814,1.8163,0,1.809,1.8106,1.8104,1.812,1.8127,1.8121,1.8129,1.8132,1.8131,1.8137,1.8136,1.8142,1.8133,1.8134,1.8141,1.814,1.8151,1.8138,1.8146,1.8146,1.8146,1.8176,1.8181,1.8202,1.8166,1.8166,1.8167,0,1.8112,1.8118,1.8135,1.8139,1.8142,1.8149,1.8155,1.8161,1.8164,1.8164,1.8167,1.8163,1.8172,1.8161,1.8174,1.8165,1.8168,1.8168,1.8169,1.8169,1.8157,1.8177,1.8209,1.8212,1.8171,1.8171,1.817,0,1.8128,1.814,1.8152,1.8155,1.816,1.8165,1.8168,1.8171,1.8175,1.818,1.8183,1.8188,1.8191,1.8195,1.8193,1.8185,1.8207,1.8195,1.8206,1.8206,1.821,1.821,1.8244,1.8212,1.8212,1.8212,1.8212,0,1.8148,1.8159,1.816,1.8167,1.818,1.8178,1.819,1.8191,1.8194,1.8202,1.8197,1.8204,1.82,1.8207,1.8204,1.8216,1.8217,1.8217,1.8216,1.8218,1.8218,1.8219,1.8218,1.8213,1.8213,1.8213,1.8213,0,1.8168,1.8169,1.8182,1.8187,1.8188,1.8197,1.8201,1.8208,1.8209,1.8218,1.8221,1.8221,1.8229,1.8227,1.8235,1.8234,1.8249,1.8246,1.8248,1.8248,1.8259,1.8258,1.8295,1.83,1.8265,1.8265,1.8266,0,1.8181,1.8189,1.8196,1.8202,1.8205,1.8213,1.8219,1.8217,1.8223,1.8229,1.8236,1.8244,1.825,1.8264,1.8264,1.8271,1.8268,1.8281,1.8269,1.8271,1.8269,1.8269,1.827,1.8283,1.8283,1.8283,1.8284,0,1.8204,1.8205,1.8213,1.8222,1.8229,1.8235,1.8241,1.8246,1.8245,1.8252,1.8261,1.8267,1.8277,1.8285,1.8292,1.8293,1.8289,1.8288,1.8291,1.8292,1.8294,1.8294,1.8255,1.8287,1.8286,1.8286,1.8286,1.8286,1.822,1.8229,1.8236,1.8245,1.825,1.8257,1.8265,1.8267,1.8275,1.8285,1.8283,1.8294,1.8299,1.8308,1.8311,1.832,1.8315,1.8319,1.832,1.8321,1.8323,1.8293,1.8321,1.832,1.832,1.832,1.832,0,1.8244,1.8249,1.8258,1.8268,1.8276,1.8273,1.828,1.8287,1.8297,1.8303,1.8311,1.8322,1.8331,1.8333,1.8342,1.8348,1.8346,1.835,1.835,1.8351,1.8326,1.8323,1.8352,1.8352,1.8352,1.8352,1.8352,1.8352,1.8257,1.8271,1.8274,1.8291,1.8295,1.8307,1.8312,1.8318,1.8323,1.8337,1.8345,1.8347,1.8352,1.8361,1.8369,1.837,1.8373,1.8379,1.8378,1.8355,1.8352,1.8349,1.8346,1.8379,1.8379,1.8402,1.8402,1.8402]}]]